Time,TemperatureF,DewpointF,PressureIn,WindDirection,WindDirectionDegrees,WindSpeedMPH,WindSpeedGustMPH,Humidity,HourlyPrecipIn,Conditions,Clouds,dailyrainin,SoftwareType,DateUTC
2013-04-23 00:01:00,19.0,17.0,-100.00,North,3,2.0,4.0,93,-99.99,,,-99.99,,2013-04-23 06:01:00,
2013-04-23 00:12:00,19.0,17.0,-100.00,North,3,2.0,4.0,93,-99.99,,,-99.99,,2013-04-23 06:12:00,
2013-04-23 00:21:00,19.0,17.0,-100.00,NNE,22,2.0,5.0,93,-99.99,,,-99.99,,2013-04-23 06:21:00,
2013-04-23 00:32:00,19.0,17.0,-100.00,NNE,22,2.0,5.0,93,-99.99,,,-99.99,,2013-04-23 06:32:00,
2013-04-23 00:41:00,19.0,17.0,-100.00,NNE,22,2.0,5.0,93,-99.99,,,-99.99,,2013-04-23 06:41:00,
2013-04-23 01:32:00,19.0,18.0,-100.00,North,10,2.0,5.0,96,-99.99,,,-99.99,,2013-04-23 07:32:00,
2013-04-23 01:42:00,19.0,18.0,-100.00,North,10,2.0,5.0,96,-99.99,,,-99.99,,2013-04-23 07:42:00,
2013-04-23 01:52:00,19.0,19.0,-100.00,North,359,3.0,6.0,100,-99.99,,,-99.99,,2013-04-23 07:52:00,
2013-04-23 02:01:00,19.0,19.0,-100.00,NNE,17,2.0,6.0,100,-99.99,,,-99.99,,2013-04-23 08:01:00,
2013-04-23 02:11:00,19.0,19.0,-100.00,NNE,17,2.0,6.0,100,-99.99,,,-99.99,,2013-04-23 08:11:00,
2013-04-23 02:21:00,18.0,18.0,-100.00,NNE,13,2.0,6.0,100,-99.99,,,-99.99,,2013-04-23 08:21:00,
2013-04-23 02:31:00,18.0,18.0,-100.00,North,4,3.0,7.0,106,-99.99,,,-99.99,,2013-04-23 08:31:00,
2013-04-23 02:42:00,18.0,18.0,-100.00,North,4,3.0,7.0,106,-99.99,,,-99.99,,2013-04-23 08:42:00,
2013-04-23 02:52:00,18.0,18.0,-100.00,North,11,3.0,5.0,100,-99.99,,,-99.99,,2013-04-23 08:52:00,
2013-04-23 03:01:00,17.0,17.0,-100.00,North,8,2.0,6.0,100,-99.99,,,-99.99,,2013-04-23 09:01:00,
2013-04-23 03:11:00,17.0,17.0,-100.00,North,8,2.0,6.0,100,-99.99,,,-99.99,,2013-04-23 09:11:00,
2013-04-23 03:21:00,17.0,17.0,-100.00,North,10,2.0,4.0,100,-99.99,,,-99.99,,2013-04-23 09:21:00,
2013-04-23 03:32:00,16.0,16.0,-100.00,NNE,24,2.0,5.0,100,-99.99,,,-99.99,,2013-04-23 09:32:00,
2013-04-23 03:42:00,16.0,16.0,-100.00,NNE,24,2.0,5.0,100,-99.99,,,-99.99,,2013-04-23 09:42:00,
2013-04-23 03:52:00,16.0,16.0,-100.00,NNE,13,2.0,5.0,100,-99.99,,,-99.99,,2013-04-23 09:52:00,
2013-04-23 04:02:00,16.0,16.0,-100.00,North,4,2.0,4.0,100,-99.99,,,-99.99,,2013-04-23 10:02:00,
2013-04-23 04:12:00,16.0,16.0,-100.00,North,4,2.0,4.0,100,-99.99,,,-99.99,,2013-04-23 10:12:00,
2013-04-23 04:22:00,16.0,16.0,-100.00,North,2,2.0,4.0,100,-99.99,,,-99.99,,2013-04-23 10:22:00,
2013-04-23 04:32:00,15.0,15.0,-100.00,North,8,2.0,4.0,100,-99.99,,,-99.99,,2013-04-23 10:32:00,
2013-04-23 04:42:00,15.0,15.0,-100.00,North,8,2.0,4.0,100,-99.99,,,-99.99,,2013-04-23 10:42:00,
2013-04-23 04:52:00,15.0,15.0,-100.00,NNE,25,1.0,3.0,100,-99.99,,,-99.99,,2013-04-23 10:52:00,
2013-04-23 05:02:00,15.0,15.0,-100.00,NNE,14,1.0,2.0,100,-99.99,,,-99.99,,2013-04-23 11:02:00,
2013-04-23 05:12:00,15.0,15.0,-100.00,NNE,14,1.0,2.0,100,-99.99,,,-99.99,,2013-04-23 11:12:00,
2013-04-23 05:21:00,15.0,15.0,-100.00,NNE,29,1.0,4.0,100,-99.99,,,-99.99,,2013-04-23 11:21:00,
2013-04-23 05:32:00,15.0,15.0,-100.00,NNE,14,1.0,3.0,100,-99.99,,,-99.99,,2013-04-23 11:32:00,
2013-04-23 05:42:00,15.0,15.0,-100.00,NNE,14,1.0,3.0,100,-99.99,,,-99.99,,2013-04-23 11:42:00,
2013-04-23 05:52:00,15.0,15.0,-100.00,NNE,12,1.0,3.0,100,-99.99,,,-99.99,,2013-04-23 11:52:00,
2013-04-23 06:02:00,14.0,14.0,-100.00,NE,34,0.0,1.0,100,-99.99,,,-99.99,,2013-04-23 12:02:00,
2013-04-23 06:12:00,14.0,14.0,-100.00,NE,34,0.0,1.0,100,-99.99,,,-99.99,,2013-04-23 12:12:00,
2013-04-23 06:22:00,13.0,13.0,-100.00,North,350,1.0,2.0,100,-99.99,,,-99.99,,2013-04-23 12:22:00,
2013-04-23 06:32:00,13.0,13.0,-100.00,North,350,1.0,2.0,100,-99.99,,,-99.99,,2013-04-23 12:32:00,
2013-04-23 06:41:00,13.0,13.0,-100.00,North,350,1.0,2.0,100,-99.99,,,-99.99,,2013-04-23 12:41:00,
2013-04-23 06:52:00,12.0,12.0,-100.00,NE,46,0.0,1.0,100,-99.99,,,-99.99,,2013-04-23 12:52:00,
2013-04-23 07:01:00,12.0,12.0,-100.00,NE,34,1.0,3.0,100,-99.99,,,-99.99,,2013-04-23 13:01:00,
2013-04-23 07:11:00,12.0,12.0,-100.00,NE,34,1.0,3.0,100,-99.99,,,-99.99,,2013-04-23 13:11:00,
2013-04-23 07:21:00,13.0,13.0,-100.00,North,6,1.0,3.0,100,-99.99,,,-99.99,,2013-04-23 13:21:00,
2013-04-23 07:32:00,13.0,13.0,-100.00,NNE,15,1.0,3.0,100,-99.99,,,-99.99,,2013-04-23 13:32:00,
2013-04-23 07:41:00,13.0,13.0,-100.00,NNE,15,1.0,3.0,100,-99.99,,,-99.99,,2013-04-23 13:41:00,
2013-04-23 07:52:00,14.0,14.0,-100.00,NNE,13,1.0,3.0,100,-99.99,,,-99.99,,2013-04-23 13:52:00,
2013-04-23 08:01:00,13.0,13.0,-100.00,NNE,14,1.0,3.0,100,-99.99,,,-99.99,,2013-04-23 14:01:00,
2013-04-23 08:11:00,13.0,13.0,-100.00,NNE,14,1.0,3.0,100,-99.99,,,-99.99,,2013-04-23 14:11:00,
2013-04-23 08:22:00,13.0,13.0,-100.00,North,9,1.0,2.0,100,-99.99,,,-99.99,,2013-04-23 14:22:00,
2013-04-23 08:31:00,13.0,13.0,-100.00,NNE,18,1.0,2.0,100,-99.99,,,-99.99,,2013-04-23 14:31:00,
2013-04-23 08:42:00,13.0,13.0,-100.00,NNE,18,1.0,2.0,100,-99.99,,,-99.99,,2013-04-23 14:42:00,
2013-04-23 08:52:00,14.0,14.0,-100.00,NNE,29,2.0,4.0,100,-99.99,,,-99.99,,2013-04-23 14:52:00,
2013-04-23 09:01:00,14.0,14.0,-100.00,NNE,29,2.0,4.0,100,-99.99,,,-99.99,,2013-04-23 15:01:00,
2013-04-23 09:12:00,14.0,14.0,-100.00,NNE,20,1.0,3.0,100,-99.99,,,-99.99,,2013-04-23 15:12:00,
2013-04-23 09:21:00,14.0,14.0,-100.00,NNE,13,2.0,4.0,100,-99.99,,,-99.99,,2013-04-23 15:21:00,
2013-04-23 09:32:00,16.0,16.0,-100.00,NNE,22,1.0,3.0,100,-99.99,,,-99.99,,2013-04-23 15:32:00,
2013-04-23 09:42:00,16.0,16.0,-100.00,NNE,22,1.0,3.0,100,-99.99,,,-99.99,,2013-04-23 15:42:00,
2013-04-23 09:52:00,17.0,17.0,-100.00,North,8,1.0,2.0,100,-99.99,,,-99.99,,2013-04-23 15:52:00,
2013-04-23 10:02:00,17.0,17.0,-100.00,North,6,1.0,4.0,100,-99.99,,,-99.99,,2013-04-23 16:02:00,
2013-04-23 10:12:00,17.0,17.0,-100.00,North,6,1.0,4.0,100,-99.99,,,-99.99,,2013-04-23 16:12:00,
2013-04-23 10:23:00,17.0,17.0,-100.00,North,6,1.0,4.0,100,-99.99,,,-99.99,,2013-04-23 16:23:00,
2013-04-23 10:33:00,18.0,18.0,-100.00,NNW,330,2.0,3.0,100,-99.99,,,-99.99,,2013-04-23 16:33:00,
2013-04-23 10:42:00,18.0,18.0,-100.00,NNW,330,2.0,3.0,100,-99.99,,,-99.99,,2013-04-23 16:42:00,
2013-04-23 10:52:00,20.0,19.0,-100.00,North,354,2.0,4.0,94,-99.99,,,-99.99,,2013-04-23 16:52:00,
2013-04-23 11:02:00,21.0,16.0,-100.00,NNE,33,1.0,4.0,81,-99.99,,,-99.99,,2013-04-23 17:02:00,
2013-04-23 11:11:00,21.0,16.0,-100.00,NNE,33,1.0,4.0,81,-99.99,,,-99.99,,2013-04-23 17:11:00,
2013-04-23 11:22:00,22.0,15.0,-100.00,NNE,24,2.0,4.0,74,-99.99,,,-99.99,,2013-04-23 17:22:00,
2013-04-23 11:32:00,24.0,15.0,-100.00,NE,48,2.0,3.0,67,-99.99,,,-99.99,,2013-04-23 17:32:00,
2013-04-23 11:42:00,24.0,15.0,-100.00,NE,48,2.0,3.0,67,-99.99,,,-99.99,,2013-04-23 17:42:00,
2013-04-23 11:53:00,25.0,16.0,-100.00,NNE,14,2.0,5.0,68,-99.99,,,-99.99,,2013-04-23 17:53:00,
2013-04-23 12:02:00,25.0,14.0,-100.00,NNE,25,2.0,4.0,62,-99.99,,,-99.99,,2013-04-23 18:02:00,
2013-04-23 12:12:00,25.0,14.0,-100.00,NNE,25,2.0,4.0,62,-99.99,,,-99.99,,2013-04-23 18:12:00,
2013-04-23 12:22:00,27.0,13.0,-100.00,NNE,20,2.0,4.0,54,-99.99,,,-99.99,,2013-04-23 18:22:00,
2013-04-23 12:32:00,28.0,10.0,-100.00,NNE,28,2.0,6.0,47,-99.99,,,-99.99,,2013-04-23 18:32:00,
2013-04-23 12:42:00,28.0,10.0,-100.00,NNE,28,2.0,6.0,47,-99.99,,,-99.99,,2013-04-23 18:42:00,
2013-04-23 12:52:00,28.0,10.0,-100.00,NE,39,2.0,4.0,46,-99.99,,,-99.99,,2013-04-23 18:52:00,
2013-04-23 13:02:00,29.0,9.0,-100.00,NNE,13,2.0,6.0,43,-99.99,,,-99.99,,2013-04-23 19:02:00,
2013-04-23 13:11:00,29.0,9.0,-100.00,NNE,13,2.0,6.0,43,-99.99,,,-99.99,,2013-04-23 19:11:00,
2013-04-23 13:21:00,29.0,8.0,-100.00,NNE,23,2.0,6.0,40,-99.99,,,-99.99,,2013-04-23 19:21:00,
2013-04-23 13:32:00,30.0,9.0,-100.00,NNE,20,2.0,6.0,40,-99.99,,,-99.99,,2013-04-23 19:32:00,
2013-04-23 13:42:00,30.0,9.0,-100.00,NNE,20,2.0,6.0,40,-99.99,,,-99.99,,2013-04-23 19:42:00,
2013-04-23 13:52:00,30.0,9.0,-100.00,NE,36,2.0,3.0,41,-99.99,,,-99.99,,2013-04-23 19:52:00,
2013-04-23 14:01:00,32.0,10.0,-100.00,NE,41,1.0,4.0,39,-99.99,,,-99.99,,2013-04-23 20:01:00,
2013-04-23 14:11:00,32.0,10.0,-100.00,NE,41,1.0,4.0,39,-99.99,,,-99.99,,2013-04-23 20:11:00,
2013-04-23 14:21:00,31.0,11.0,-100.00,NNE,26,3.0,6.0,42,-99.99,,,-99.99,,2013-04-23 20:21:00,
2013-04-23 14:31:00,30.0,11.0,-100.00,North,11,2.0,5.0,44,-99.99,,,-99.99,,2013-04-23 20:31:00,
2013-04-23 14:42:00,30.0,11.0,-100.00,North,11,2.0,5.0,44,-99.99,,,-99.99,,2013-04-23 20:42:00,
2013-04-23 14:51:00,30.0,10.0,-100.00,NNE,14,2.0,4.0,43,-99.99,,,-99.99,,2013-04-23 20:51:00,
2013-04-23 15:01:00,30.0,12.0,-100.00,North,4,2.0,4.0,46,-99.99,,,-99.99,,2013-04-23 21:01:00,
2013-04-23 15:11:00,30.0,12.0,-100.00,North,4,2.0,4.0,46,-99.99,,,-99.99,,2013-04-23 21:11:00,
2013-04-23 15:21:00,30.0,11.0,-100.00,NNE,12,3.0,6.0,45,-99.99,,,-99.99,,2013-04-23 21:21:00,
2013-04-23 15:32:00,30.0,11.0,-100.00,NNE,12,3.0,6.0,45,-99.99,,,-99.99,,2013-04-23 21:32:00,
2013-04-23 15:43:00,30.0,11.0,-100.00,NNE,12,3.0,6.0,45,-99.99,,,-99.99,,2013-04-23 21:43:00,
2013-04-23 15:52:00,31.0,-6.0,-100.00,NNE,26,2.0,4.0,19,-99.99,,,-99.99,,2013-04-23 21:52:00,
2013-04-23 16:03:00,32.0,-7.0,-100.00,SSE,148,2.0,3.0,18,-99.99,,,-99.99,,2013-04-23 22:03:00,
2013-04-23 16:22:00,33.0,-2.0,-100.00,NE,39,1.0,2.0,22,-99.99,,,-99.99,,2013-04-23 22:22:00,
2013-04-23 16:33:00,32.0,-9.0,-100.00,NNE,24,1.0,3.0,16,-99.99,,,-99.99,,2013-04-23 22:33:00,
2013-04-23 16:42:00,32.0,-9.0,-100.00,NNE,24,1.0,3.0,16,-99.99,,,-99.99,,2013-04-23 22:42:00,
2013-04-23 16:52:00,33.0,-5.0,-100.00,NNE,23,1.0,4.0,19,-99.99,,,-99.99,,2013-04-23 22:52:00,
2013-04-23 17:02:00,32.0,-2.0,-100.00,NNE,26,2.0,6.0,23,-99.99,,,-99.99,,2013-04-23 23:02:00,
2013-04-23 17:12:00,32.0,-2.0,-100.00,NNE,26,2.0,6.0,23,-99.99,,,-99.99,,2013-04-23 23:12:00,
2013-04-23 17:22:00,33.0,-2.0,-100.00,NNE,17,1.0,3.0,22,-99.99,,,-99.99,,2013-04-23 23:22:00,
2013-04-23 17:31:00,32.0,-2.0,-100.00,NNE,22,2.0,7.0,22,-99.99,,,-99.99,,2013-04-23 23:31:00,
2013-04-23 17:42:00,32.0,-2.0,-100.00,NNE,22,2.0,7.0,22,-99.99,,,-99.99,,2013-04-23 23:42:00,
2013-04-23 17:52:00,31.0,-2.0,-100.00,NNE,13,1.0,4.0,24,-99.99,,,-99.99,,2013-04-23 23:52:00,
2013-04-23 18:01:00,31.0,1.0,-100.00,NE,53,1.0,3.0,27,-99.99,,,-99.99,,2013-04-24 00:01:00,
2013-04-23 18:11:00,31.0,1.0,-100.00,NE,53,1.0,3.0,27,-99.99,,,-99.99,,2013-04-24 00:11:00,
2013-04-23 18:21:00,31.0,2.0,-100.00,East,97,1.0,3.0,28,-99.99,,,-99.99,,2013-04-24 00:21:00,
2013-04-23 18:32:00,31.0,2.0,-100.00,East,97,1.0,3.0,28,-99.99,,,-99.99,,2013-04-24 00:32:00,
2013-04-23 18:41:00,31.0,2.0,-100.00,East,97,1.0,3.0,28,-99.99,,,-99.99,,2013-04-24 00:41:00,
2013-04-23 18:52:00,30.0,2.0,-100.00,NE,52,1.0,2.0,29,-99.99,,,-99.99,,2013-04-24 00:52:00,
2013-04-23 19:01:00,30.0,4.0,-100.00,East,87,1.0,2.0,32,-99.99,,,-99.99,,2013-04-24 01:01:00,
2013-04-23 19:11:00,30.0,4.0,-100.00,East,87,1.0,2.0,32,-99.99,,,-99.99,,2013-04-24 01:11:00,
2013-04-23 19:21:00,29.0,7.0,-100.00,SE,126,1.0,2.0,39,-99.99,,,-99.99,,2013-04-24 01:21:00,
2013-04-23 19:32:00,29.0,8.0,-100.00,SE,125,1.0,3.0,40,-99.99,,,-99.99,,2013-04-24 01:32:00,
2013-04-23 19:42:00,29.0,8.0,-100.00,SE,125,1.0,3.0,40,-99.99,,,-99.99,,2013-04-24 01:42:00,
2013-04-23 19:52:00,28.0,5.0,-100.00,ESE,108,1.0,3.0,37,-99.99,,,-99.99,,2013-04-24 01:52:00,
2013-04-23 20:02:00,27.0,4.0,-100.00,ESE,115,1.0,2.0,37,-99.99,,,-99.99,,2013-04-24 02:02:00,
2013-04-23 20:14:00,27.0,4.0,-100.00,ESE,115,1.0,2.0,37,-99.99,,,-99.99,,2013-04-24 02:14:00,
2013-04-23 20:35:00,26.0,2.0,-100.00,North,7,1.0,2.0,34,-99.99,,,-99.99,,2013-04-24 02:35:00,
2013-04-23 20:46:00,26.0,2.0,-100.00,North,7,1.0,2.0,34,-99.99,,,-99.99,,2013-04-24 02:46:00,
2013-04-23 20:54:00,26.0,2.0,-100.00,ESE,122,1.0,2.0,34,-99.99,,,-99.99,,2013-04-24 02:54:00,
2013-04-23 21:14:00,25.0,2.0,-100.00,SE,130,1.0,3.0,36,-99.99,,,-99.99,,2013-04-24 03:14:00,
2013-04-23 21:25:00,25.0,4.0,-100.00,SSE,153,1.0,2.0,39,-99.99,,,-99.99,,2013-04-24 03:25:00,
2013-04-23 21:36:00,25.0,5.0,-100.00,SSE,157,1.0,2.0,41,-99.99,,,-99.99,,2013-04-24 03:36:00,
2013-04-23 21:47:00,25.0,5.0,-100.00,SSE,157,1.0,2.0,41,-99.99,,,-99.99,,2013-04-24 03:47:00,
2013-04-23 21:55:00,24.0,4.0,-100.00,SSW,193,0.0,1.0,41,-99.99,,,-99.99,,2013-04-24 03:55:00,
2013-04-23 22:02:00,24.0,6.0,-100.00,South,190,0.0,1.0,46,-99.99,,,-99.99,,2013-04-24 04:02:00,
2013-04-23 22:12:00,24.0,6.0,-100.00,South,190,0.0,1.0,46,-99.99,,,-99.99,,2013-04-24 04:12:00,
2013-04-23 22:22:00,24.0,5.0,-100.00,SSW,195,0.0,1.0,44,-99.99,,,-99.99,,2013-04-24 04:22:00,
2013-04-23 22:33:00,24.0,5.0,-100.00,SSW,193,0.0,1.0,44,-99.99,,,-99.99,,2013-04-24 04:33:00,
2013-04-23 22:43:00,24.0,5.0,-100.00,SSW,193,0.0,1.0,44,-99.99,,,-99.99,,2013-04-24 04:43:00,
2013-04-23 22:52:00,24.0,9.0,-100.00,SSW,205,1.0,1.0,53,-99.99,,,-99.99,,2013-04-24 04:52:00,
2013-04-23 23:02:00,24.0,13.0,-100.00,South,189,0.0,1.0,61,-99.99,,,-99.99,,2013-04-24 05:02:00,
2013-04-23 23:12:00,24.0,13.0,-100.00,South,189,0.0,1.0,61,-99.99,,,-99.99,,2013-04-24 05:12:00,
2013-04-23 23:21:00,24.0,11.0,-100.00,SSW,197,0.0,1.0,58,-99.99,,,-99.99,,2013-04-24 05:21:00,
2013-04-23 23:32:00,24.0,13.0,-100.00,South,188,0.0,1.0,63,-99.99,,,-99.99,,2013-04-24 05:32:00,
2013-04-23 23:42:00,24.0,13.0,-100.00,South,188,0.0,1.0,63,-99.99,,,-99.99,,2013-04-24 05:42:00,
2013-04-23 23:51:00,23.0,12.0,-100.00,South,180,1.0,1.0,63,-99.99,,,-99.99,,2013-04-24 05:51:00,